This demonstration page uses our WeatherBlox Daily Observations layout. Learn more.

39.51506, -84.39828

Hourly Observations for November 1, 2019

Temp ( °F °C ) Dew Point ( °F °C ) Humidity (%) Winds ( mph kmh ) Pressure ( in mb ) Visibility ( mi km ) Precip ( " mm )
12:15 am 00:15 Cloudy 35 1.4 29 -1.6 81 81 W 16 26 30.21 1023 10 16.0934 0 0
12:35 am 00:35 Cloudy 35 1.4 29 -1.7 80 80 W 14 22 30.22 1023 10 16.0934 0 0
12:55 am 00:55 Cloudy 35 1.4 29 -1.7 80 80 WNW 14 22 30.23 1024 10 16.0934 0 0
1:15 am 01:15 Cloudy 34 1.3 29 -1.9 79 79 WNW 17 28 30.24 1024 10 16.0934 0 0
1:35 am 01:35 Cloudy 34 1.2 28 -2.2 78 78 WNW 16 26 30.25 1024 10 16.0934 0 0
1:55 am 01:55 Cloudy 34 1.1 28 -2.1 79 79 W 7 11 30.25 1024 10 16.0934 0 0
2:15 am 02:15 Cloudy 34 1.1 28 -2 80 80 W 16 26 30.26 1025 10 16.0934 0 0
2:35 am 02:35 Cloudy 34 1.1 27 -2.6 77 77 W 14 22 30.27 1025 10 16.0934 0 0
2:55 am 02:55 Cloudy 34 0.9 26 -3.3 74 74 WNW 15 24 30.27 1025 10 16.0934 0 0
3:15 am 03:15 Cloudy 33 0.8 26 -3.3 74 74 WNW 13 20 30.28 1026 10 16.0934 0 0
3:35 am 03:35 Cloudy 33 0.8 26 -3.2 75 75 WNW 9 15 30.28 1026 10 16.0934 0 0
3:55 am 03:55 Cloudy 33 0.8 26 -3.1 75 75 W 8 13 30.28 1026 10 16.0934 0 0
4:15 am 04:15 Cloudy 33 0.8 26 -3.4 74 74 W 10 17 30.28 1026 10 16.0934 0 0
4:35 am 04:35 Cloudy 33 0.7 26 -3.5 74 74 W 12 19 30.29 1026 10 16.0934 0 0
4:55 am 04:55 Cloudy 33 0.5 25 -3.7 74 74 W 12 19 30.29 1026 10 16.0934 0 0
5:15 am 05:15 Cloudy 32 0.2 25 -4.1 73 73 W 17 28 30.31 1027 10 16.0934 0 0
5:35 am 05:35 Cloudy 32 -0.1 24 -4.4 73 73 W 10 17 30.32 1027 10 16.0934 0 0
5:55 am 05:55 Cloudy 31 -0.5 24 -4.7 74 74 WNW 12 19 30.33 1027 10 16.0934 0 0
6:15 am 06:15 Cloudy 31 -0.7 24 -4.4 76 76 W 13 20 30.35 1028 10 16.0934 0 0
6:35 am 06:35 Mostly Cloudy 30 -0.9 24 -4.5 77 77 W 10 17 30.35 1028 10 16.0934 0 0
6:55 am 06:55 Mostly Cloudy 30 -1.2 24 -4.5 79 79 W 9 15 30.36 1028 10 16.0934 0 0
7:15 am 07:15 Clear 29 -1.9 24 -4.4 83 83 WSW 7 11 30.37 1028 10 16.0934 0 0
7:35 am 07:35 Clear 28 -2 24 -4.2 85 85 SW 8 13 30.38 1029 10 16.0934 0 0
7:55 am 07:55 Clear 28 -2.5 24 -4.4 87 87 W 6 9 30.38 1029 10 16.0934 0 0
8:15 am 08:15 Sunny 28 -2.5 25 -4.1 89 89 WSW 5 7 30.38 1029 10 16.0934 0 0
8:35 am 08:35 Sunny 29 -1.9 25 -3.7 88 88 WSW 7 11 30.39 1029 10 16.0934 0 0
8:55 am 08:55 Sunny 30 -1.3 26 -3.3 86 86 SW 7 11 30.4 1029 10 16.0934 0 0
9:15 am 09:15 Sunny 31 -0.8 26 -3.4 83 83 WSW 9 15 30.39 1029 10 16.0934 0 0
9:35 am 09:35 Sunny 31 -0.3 26 -3.1 82 82 WSW 10 17 30.39 1029 10 16.0934 0 0
9:55 am 09:55 Sunny 33 0.6 27 -2.7 79 79 WSW 9 15 30.39 1029 10 16.0934 0 0
10:15 am 10:15 Sunny 33 0.8 27 -2.9 77 77 WSW 10 17 30.4 1030 10 16.0934 0 0
10:35 am 10:35 Sunny 35 1.5 27 -2.7 74 74 SW 9 15 30.4 1030 10 16.0934 0 0
10:55 am 10:55 Sunny 36 2.2 27 -2.7 70 70 SW 8 13 30.4 1029 10 16.0934 0 0
11:15 am 11:15 Sunny 37 3 28 -2.2 69 69 WSW 12 19 30.41 1030 10 16.0934 0 0
11:35 am 11:35 Sunny 38 3.4 28 -2.5 66 66 SW 8 13 30.41 1030 10 16.0934 0 0
11:55 am 11:55 Sunny 40 4.2 27 -2.9 60 60 SW 13 20 30.4 1030 10 16.0934 0 0
12:15 pm 12:15 Partly Cloudy 40 4.6 27 -2.9 59 59 W 8 13 30.4 1030 10 16.0934 0 0
12:35 pm 12:35 Sunny 41 4.9 27 -3 57 57 WSW 10 17 30.39 1029 10 16.0934 0 0
12:55 pm 12:55 Sunny 42 5.4 26 -3.2 54 54 SW 10 17 30.39 1029 10 16.0934 0 0
1:15 pm 13:15 Sunny 42 5.8 26 -3.1 53 53 SSW 10 17 30.37 1028 10 16.0934 0 0
1:35 pm 13:35 Sunny 43 6.2 26 -3.2 51 51 SW 12 19 30.36 1028 10 16.0934 0 0
1:55 pm 13:55 Sunny 44 6.7 26 -3.2 50 50 WSW 7 11 30.36 1028 10 16.0934 0 0
2:15 pm 14:15 Sunny 45 7.2 27 -2.8 49 49 SW 12 19 30.35 1028 10 16.0934 0 0
2:35 pm 14:35 Sunny 45 7.3 27 -2.8 49 49 SW 8 13 30.35 1028 10 16.0934 0 0
2:55 pm 14:55 Sunny 46 7.7 27 -2.7 48 48 W 8 13 30.33 1027 10 16.0934 0 0
3:15 pm 15:15 Sunny 46 7.8 28 -2.3 49 49 SW 9 15 30.33 1027 10 16.0934 0 0
3:35 pm 15:35 Sunny 46 7.8 27 -3 47 47 SSW 7 11 30.32 1027 10 16.0934 0 0
3:55 pm 15:55 Sunny 46 7.8 27 -2.9 47 47 S 9 15 30.32 1027 10 16.0934 0 0
4:15 pm 16:15 Sunny 46 8 26 -3.1 46 46 SW 8 13 30.31 1027 10 16.0934 0 0
4:35 pm 16:35 Sunny 46 8 26 -3.1 46 46 SW 9 15 30.31 1027 10 16.0934 0 0
4:55 pm 16:55 Sunny 46 7.9 26 -3.4 45 45 S 8 13 30.31 1027 10 16.0934 0 0
5:15 pm 17:15 Sunny 46 7.9 26 -3.5 45 45 SW 10 17 30.31 1027 10 16.0934 0 0
5:35 pm 17:35 Sunny 46 7.7 26 -3.2 46 46 WSW 10 17 30.3 1026 10 16.0934 0 0
5:55 pm 17:55 Sunny 45 7.4 26 -3.3 47 47 SW 10 17 30.31 1026 10 16.0934 0 0
6:15 pm 18:15 Sunny 44 6.7 26 -3.1 50 50 WSW 7 11 30.31 1026 10 16.0934 0 0
6:35 pm 18:35 Sunny 42 5.5 27 -2.9 55 55 WSW 7 11 30.3 1026 10 16.0934 0 0
6:55 pm 18:55 Clear 42 5.7 26 -3.1 54 54 Calm 30.3 1026 10 16.0934 0 0
7:15 pm 19:15 Clear 39 3.8 31 -0.5 74 74 Calm 30.32 1027 10 16.0934 0 0
7:35 pm 19:35 Clear 37 2.6 31 -0.3 81 81 Calm 30.32 1027 10 16.0934 0 0
7:55 pm 19:55 Clear 36 2.2 31 -0.5 83 83 Calm 30.32 1027 10 16.0934 0 0
8:15 pm 20:15 Clear 36 2.1 31 -0.4 84 84 Calm 30.31 1026 10 16.0934 0 0
8:35 pm 20:35 Clear 35 1.6 31 -0.4 87 87 Calm 30.31 1026 10 16.0934 0 0
8:55 pm 20:55 Clear 34 1.1 31 -0.7 88 88 Calm 30.3 1026 10 16.0934 0 0
9:15 pm 21:15 Clear 33 0.8 30 -0.9 89 89 Calm 30.3 1026 7 11.26538 0 0
9:35 pm 21:35 Clear 33 0.4 31 -0.8 92 92 Calm 30.3 1026 10 16.0934 0 0
9:55 pm 21:55 Clear 33 0.3 31 -0.6 94 94 Calm 30.3 1026 10 16.0934 0 0
10:15 pm 22:15 Clear 32 0 32 0 100 100 Calm 30.31 1026 10 16.0934 0 0
10:35 pm 22:35 Clear 31 -0.3 30 -1.3 93 93 Calm 30.3 1026 10 16.0934 0 0
10:55 pm 22:55 Clear 32 0 31 -0.6 96 96 Calm 30.3 1026 10 16.0934 0 0
11:15 pm 23:15 Clear 32 -0.1 31 -0.6 96 96 Calm 30.3 1026 10 16.0934 0 0
11:35 pm 23:35 Clear with Mist and Fog 32 0.1 31 -0.4 96 96 Calm 30.29 1026 7 11.26538 0 0
11:55 pm 23:55 Clear with Mist and Fog 31 -0.8 30 -1.2 97 97 Calm 30.29 1026 5 8.0467 0 0

Powered by AerisWeather